Regional Weather Roundup
Issued by NWS

Home | Current Version | Previous Version | Text Only | Print | Product List | Glossary Off
Versions: 1 2 3 4 5 6 7 8 9 10 11 12 13 14 15 16 17 18 19 20 21 22 23 24 25 26 27

000
ASUS45 KSLC 180210
RWRUT

UTAH REGIONAL WEATHER ROUNDUP
NATIONAL WEATHER SERVICE SALT LAKE CITY UT
800 PM MDT TUE OCT 17 2017

UTZ001>011-023>025-180300-

NORTHERN UTAH

CITY           SKY/WX    TMP DP  RH WIND       PRES   REMARKS
BRIGHAM CITY   MOCLDY    54  28  36 N5        30.12S
HILL AFB       MOCLDY    55  31  40 N7        30.13S
LOGAN          MOCLDY    52  25  35 CALM      30.12S
OGDEN          MOCLDY    55  34  45 CALM      30.12S
SALT LAKE CITY MOCLDY    54  32  43 W5        30.12R
TOOELE VALLEY  MOCLDY    46  34  61 CALM      30.12S
WENDOVER       CLOUDY    52  22  30 CALM      30.13R
WEST JORDAN    MOCLDY    54  32  43 CALM      30.14R

$$

UTZ011>015-024>027-180300-

CENTRAL/NORTHEAST UTAH

CITY           SKY/WX    TMP DP  RH WIND       PRES   REMARKS
PROVO AIRPORT  PTCLDY    53  23  31 E3        30.12S
MOAB/CANYONLAN CLEAR     50  10  20 W3        30.15R
DELTA          MOCLDY    59  18  20 NE5       30.12S
PRICE          PTCLDY    49   6  17 N10       30.22S
RICHFIELD      CLEAR     55  19  24 CALM      30.18R
ROOSEVELT      CLOUDY    45  23  42 CALM      30.20R
VERNAL         CLOUDY    49  22  34 W7        30.18R

$$

UTZ013>016-019>022-027-180300-

SOUTHERN UTAH

CITY           SKY/WX    TMP DP  RH WIND       PRES   REMARKS
BRYCE CANYON   PTCLDY    46  14  27 SE6       30.32R
CEDAR CITY     PTCLDY    57  22  25 SW6       30.18R
MILFORD        MOCLDY    61  19  19 S10       30.13R
ST GEORGE      PTCLDY    74  15  10 CALM      30.04R
HANKSVILLE     MOCLDY    55  12  18 NE8       30.17S
KANAB          CLEAR     64  23  20 N3        30.19R
BLANDING         N/A     57   9  14 CALM      30.31R

$$

REGIONAL REPORTS     COLORADO/ARIZONA

CITY           SKY/WX    TMP DP  RH WIND       PRES   REMARKS
CRAIG, CO      CLOUDY    42  19  39 E3        30.21R
GRAND JUNCTION CLEAR     52  13  21 CALM      30.19R
RIFLE, CO      CLOUDY    52  19  27 VRB6      30.21R
MONTROSE, CO   CLOUDY    48  21  34 SE9       30.26R
CORTEZ, CO     CLOUDY    46  11  24 NE10      30.25R
COLORADO CITY    N/A     64  23  20 CALM      30.19R
PAGE, AZ       PTCLDY    62  19  19 CALM      30.12S
GRAND CANYON   PTCLDY    52  21  29 E6        30.29R
KINGMAN, AZ    CLEAR     74  27  17 SW12      30.09R
FLAGSTAFF, AZ  PTCLDY    53  23  31 CALM      30.31R

$$

REGIONAL REPORTS    NEVADA/IDAHO/WYOMING

CITY           SKY/WX    TMP DP  RH WIND       PRES   REMARKS
LAS VEGAS, NV  MOCLDY    79  16   9 CALM      29.99R
ELY, NY        CLOUDY    52  -1  11 NE5       30.20R
ELKO, NV       MOCLDY    52  14  22 CALM      30.17R
POCATELLO, ID  CLOUDY    61  21  21 S15       30.09S
BURLEY, ID     MOCLDY    55  25  31 S7        30.08R
FORT BRIDGER,    N/A     53   2  12 W9        30.24S
EVANSTON, WY   CLOUDY    52   5  15 W9        30.23S
ROCK SPRINGS,  CLOUDY    54   8  16 SW9       30.20R
KEMMERER, WY   CLOUDY    50   3  14 W10       30.23R

$$




USA.gov is the U.S. government's official web portal to all federal, state and local government web resources and services.